TimePST,TemperatureF,Dew PointF,Humidity,Sea Level PressureIn,VisibilityMPH,Wind Direction,Wind SpeedMPH,Gust SpeedMPH,PrecipitationIn,Events,Conditions,WindDirDegrees,DateUTC
12:56 AM,54.0,10.0,17,30.46,10.0,ESE,8.1,-,N/A,,Clear,120,2014-01-15 08:56:00
1:56 AM,54.0,6.1,15,30.46,10.0,SE,6.9,-,N/A,,Clear,140,2014-01-15 09:56:00
2:56 AM,51.1,12.9,22,30.47,10.0,ESE,8.1,-,N/A,,Clear,120,2014-01-15 10:56:00
3:56 AM,51.1,12.0,21,30.46,10.0,SE,8.1,-,N/A,,Clear,140,2014-01-15 11:56:00
4:56 AM,52.0,12.0,20,30.45,10.0,ESE,10.4,-,N/A,,Clear,120,2014-01-15 12:56:00
5:56 AM,52.0,7.0,16,30.45,10.0,ESE,11.5,-,N/A,,Clear,120,2014-01-15 13:56:00
6:56 AM,51.1,8.1,18,30.45,10.0,SE,13.8,-,N/A,,Clear,130,2014-01-15 14:56:00
7:56 AM,50.0,9.0,19,30.46,10.0,SE,11.5,-,N/A,,Clear,130,2014-01-15 15:56:00
8:56 AM,55.0,7.0,15,30.46,10.0,ESE,12.7,-,N/A,,Clear,120,2014-01-15 16:56:00
9:56 AM,57.0,9.0,15,30.46,10.0,ESE,11.5,-,N/A,,Clear,120,2014-01-15 17:56:00
10:56 AM,59.0,12.0,16,30.45,10.0,ESE,11.5,-,N/A,,Clear,120,2014-01-15 18:56:00
11:56 AM,60.1,10.0,14,30.43,10.0,ESE,10.4,-,N/A,,Clear,110,2014-01-15 19:56:00
12:56 PM,62.1,10.9,13,30.39,10.0,ESE,8.1,-,N/A,,Clear,120,2014-01-15 20:56:00
1:56 PM,62.1,10.0,13,30.38,10.0,ESE,6.9,-,N/A,,Clear,110,2014-01-15 21:56:00
2:56 PM,61.0,8.1,12,30.38,10.0,ESE,8.1,-,N/A,,Clear,110,2014-01-15 22:56:00
3:56 PM,60.1,6.1,12,30.38,10.0,ESE,9.2,-,N/A,,Clear,110,2014-01-15 23:56:00
4:56 PM,60.1,1.9,10,30.37,10.0,ESE,6.9,-,N/A,,Clear,110,2014-01-16 00:56:00
5:56 PM,60.1,-2.0,8,30.37,10.0,East,4.6,-,N/A,,Clear,90,2014-01-16 01:56:00
6:56 PM,57.9,1.0,10,30.37,10.0,ESE,6.9,-,N/A,,Clear,120,2014-01-16 02:56:00
7:56 PM,57.0,6.1,13,30.38,10.0,ESE,10.4,-,N/A,,Clear,120,2014-01-16 03:56:00
8:56 PM,55.9,5.0,13,30.37,10.0,ESE,10.4,-,N/A,,Clear,120,2014-01-16 04:56:00
9:56 PM,55.0,10.9,17,30.36,10.0,ESE,10.4,-,N/A,,Clear,120,2014-01-16 05:56:00
10:56 PM,54.0,10.0,17,30.36,10.0,ESE,10.4,-,N/A,,Clear,110,2014-01-16 06:56:00
11:56 PM,54.0,8.1,16,30.36,10.0,East,6.9,-,N/A,,Clear,90,2014-01-16 07:56:00